This demonstration page uses our WeatherBlox Daily Observations layout. Learn more.

Left ArrowRight Arrow

Hourly Observations for June 14, 2016

Temp ( °F °C ) Dew Point ( °F °C ) Humidity (%) Winds ( mph kmh ) Pressure ( in mb ) Visibility ( mi km ) Precip ( " mm )
12:54 am 00:54 Clear 75 23.9 68 20 79 79 ESE 5 7 29.77 1008 10 16.0934 0 0
1:54 am 01:54 Clear 75 23.9 69 20.6 82 82 SE 5 7 29.74 1007 10 16.0934 0 0
2:54 am 02:54 Partly Cloudy 73 22.8 70 21.1 90 90 SSE 7 11 29.73 1007 9 14.48406 0 0
3:54 am 03:54 Mostly Clear 75 23.9 71 21.7 88 88 SSE 9 15 29.71 1006 9 14.48406 0 0
4:54 am 04:54 Clear 73 22.8 70 21.1 90 90 S 7 11 29.7 1006 8 12.87472 0 0
5:54 am 05:54 Mostly Clear 74 23.3 71 21.7 91 91 ESE 8 13 29.69 1005 8 12.87472 0 0
6:54 am 06:54 Sunny 74 23.3 70 21.1 88 88 S 14 22 29.71 1006 8 12.87472 0 0
7:54 am 07:54 Partly Cloudy 78 25.6 70 21.1 76 76 W 7 11 29.72 1007 10 16.0934 0 0
8:03 am 08:03 Mostly Cloudy 77 25 70 21 79 79 WNW 6 9 29.71 1006 10 16.0934 0 0
8:36 am 08:36 Partly Cloudy 79 26 70 21 74 74 NE 3 6 29.71 1006 10 16.0934 0 0
8:54 am 08:54 Sunny 78 25.6 70 21.1 76 76 SSE 3 6 29.72 1007 10 16.0934 0 0
9:54 am 09:54 Sunny 80 26.7 71 21.7 74 74 SSE 8 13 29.7 1006 10 16.0934 0 0
10:54 am 10:54 Sunny 83 28.3 70 21.1 65 65 SE 13 20 29.67 1005 10 16.0934 0 0
11:54 am 11:54 Sunny 85 29.4 63 17.2 48 48 S 13 20 29.67 1005 10 16.0934 0 0
12:54 pm 12:54 Sunny 88 31.1 64 17.8 45 45 SSW 15 24 29.67 1005 10 16.0934 0 0
1:54 pm 13:54 Sunny 90 32.2 64 17.8 42 42 S 20 31 29.65 1004 10 16.0934 0 0
2:54 pm 14:54 Sunny 92 33.3 64 17.8 40 40 SW 15 24 29.64 1004 10 16.0934 0 0
3:54 pm 15:54 Sunny 93 33.9 63 17.2 37 37 WSW 14 22 29.62 1003 10 16.0934 0 0
4:54 pm 16:54 Sunny 93 33.9 64 17.8 38 38 SW 12 19 29.61 1003 10 16.0934 0 0
5:54 pm 17:54 Sunny 93 33.9 61 16.1 34 34 W 12 19 29.61 1003 10 16.0934 0 0
6:54 pm 18:54 Partly Cloudy 92 33.3 61 16.1 36 36 WSW 10 17 29.62 1003 10 16.0934 0 0
7:54 pm 19:54 Sunny 90 32.2 59 15 35 35 SW 7 11 29.63 1003 10 16.0934 0 0
8:54 pm 20:54 Sunny 86 30 60 15.6 42 42 W 5 7 29.65 1004 10 16.0934 0 0
9:54 pm 21:54 Clear 84 28.9 60 15.6 44 44 WSW 3 6 29.66 1004 10 16.0934 0 0
10:54 pm 22:54 Clear 78 25.6 61 16.1 56 56 Calm 29.67 1005 10 16.0934 0 0
11:54 pm 23:54 Clear 77 25 62 16.7 60 60 Calm 29.68 1005 10 16.0934 0 0

Powered by AerisWeather